Location: Ostrava
(49.8330°N, 18.2830°E)
Time: 15:17:13
(UTC+02:00)

Vanguard 2 Rocket - Visible Passes

Search period start: 31 August 2015 00:00
Search period end: 10 September 2015 00:00
Orbit: 554 x 3331 km, 32.9° (Epoch: 30 August)

Date Brightness Start Highest point End Pass type
(mag) Time Alt. Az. Time Alt. Az. Time Alt. Az.
31 Aug 10.6 03:32:27 10° S 03:45:00 22° SE 03:58:18 10° E visible
01 Sep 10.7 02:36:09 10° SSE 02:44:49 16° SE 02:55:39 10° ESE visible
01 Sep 10.4 04:43:34 10° SSW 04:59:50 34° SSE 05:15:13 10° E visible
02 Sep 10.4 03:46:18 13° SSW 03:59:17 29° SSE 04:14:31 10° E visible
03 Sep 10.4 02:50:33 16° S 02:58:58 23° SE 03:12:56 10° E visible
03 Sep 10.2 04:57:10 10° SW 05:14:18 40° SSE 05:30:33 10° ESE visible
04 Sep 10.5 01:54:47 15° SSE 01:58:59 16° SE 02:09:53 10° ESE visible
04 Sep 10.3 04:00:37 16° SSW 04:13:37 35° SSE 04:30:06 10° E visible
05 Sep 10.2 03:04:49 21° S 03:13:09 30° SSE 03:28:59 10° E visible
05 Sep 10.1 05:11:15 10° SW 05:28:49 44° S 05:45:38 10° ESE visible
06 Sep 10.2 02:08:59 21° SSE 02:13:01 23° SE 02:26:58 10° E visible
06 Sep 10.1 04:14:50 18° SW 04:27:59 40° SSE 04:45:19 10° ESE visible
07 Sep 10.4 01:13:09 16° SE 01:13:16 16° SE 01:23:29 10° ESE visible
07 Sep 10.0 03:18:59 25° SSW 03:27:22 35° SSE 03:44:26 10° E visible
07 Sep 10.1 05:25:40 10° WSW 05:43:22 46° S 06:00:32 10° ESE visible
08 Sep 10.0 02:23:07 27° SSE 02:27:06 29° SSE 02:42:52 10° E visible
08 Sep 10.0 04:28:57 18° SW 04:42:27 44° S 05:00:18 10° ESE visible
09 Sep 10.2 01:27:15 22° SE 01:27:15 22° SE 01:40:28 10° E visible
09 Sep 9.8 03:33:06 27° SSW 03:41:43 40° SSE 03:59:33 10° E visible
09 Sep 10.1 05:40:20 10° WSW 05:57:54 46° S 06:15:12 10° ESE visible
